1508270400.8,43340,19.75,74714.0,6.39,-27.61,-29.45,0,*79
1508270402.03,43341,19.75,74714.8,6.39,-27.71,-29.61,0,*7F
1508270403.23,43342,19.75,74712.8,6.37,-27.77,-29.61,0,*74
1508270404.49,43343,19.75,74712.3,6.39,-27.61,-29.45,0,*7A
1508270405.78,43344,19.75,74716.5,6.39,-27.61,-29.51,0,*78
1508270407.03,43345,19.75,74714.0,6.39,-27.71,-29.51,0,*78
1508270408.32,43346,19.75,74714.5,6.39,-27.61,-29.51,0,*7A
1508270409.55,43347,19.75,74714.0,6.39,-27.71,-29.61,0,*79
1508270410.77,43348,19.75,74710.3,6.39,-27.71,-29.61,0,*76
1508270412.0,43349,19.75,74712.3,6.39,-27.77,-29.61,0,*71
1508270413.22,43350,19.75,74714.8,6.39,-27.55,-29.45,0,*7F
1508270414.51,43351,19.75,74714.3,6.39,-27.61,-29.51,0,*7C
1508270415.77,43352,19.75,74712.3,6.39,-27.61,-29.45,0,*7A
1508270417.0,43353,19.75,74712.0,6.39,-27.71,-29.61,0,*7C
1508270418.21,43354,19.75,74712.0,6.41,-27.67,-29.57,0,*76
1508270419.41,43355,19.75,74714.3,6.41,-27.67,-29.45,0,*74
1508270420.67,43356,19.75,74712.3,6.39,-27.71,-29.51,0,*7A
1508270421.92,43357,19.75,74712.5,6.39,-27.71,-29.51,0,*7B
1508270423.15,43358,19.75,74712.0,6.39,-27.77,-29.61,0,*71
1508270424.38,43359,19.75,74714.3,6.43,-27.67,-29.57,0,*79
1508270425.58,43360,19.75,74714.0,6.41,-27.71,-29.57,0,*76
1508270426.85,43361,19.75,74712.0,6.43,-27.83,-29.73,0,*7E
1508270428.1,43362,19.75,74712.3,6.41,-27.83,-29.73,0,*7F
1508270429.38,43363,19.75,74712.3,6.39,-27.61,-29.51,0,*7D
1508270430.61,43364,19.75,74714.0,6.39,-27.71,-29.67,0,*7E
1508270431.81,43365,19.75,74714.3,6.41,-27.51,-29.23,0,*72
1508270433.03,43366,19.75,74712.0,6.43,-27.71,-29.61,0,*77
1508270434.24,43367,19.75,74714.5,6.41,-27.67,-29.57,0,*76
1508270435.44,43368,19.75,74714.3,6.41,-27.71,-29.57,0,*7E
1508270436.66,43369,19.75,74714.3,6.41,-27.83,-29.61,0,*77
1508270437.86,43370,19.75,74714.0,6.41,-27.71,-29.57,0,*77
1508270439.09,43371,19.75,74714.3,6.43,-27.51,-29.45,0,*75
1508270440.31,43372,19.75,74714.0,6.41,-27.83,-29.57,0,*78
1508270441.51,43373,19.75,74712.0,6.41,-27.67,-29.61,0,*76
1508270442.74,43374,19.75,74714.3,6.41,-27.89,-29.73,0,*72
1508270443.98,43375,19.75,74714.8,6.41,-27.83,-29.73,0,*79
1508270445.2,43376,19.75,74712.0,6.39,-27.89,-29.79,0,*75
1508270446.42,43377,19.75,74712.3,6.39,-27.89,-29.79,0,*74
1508270447.65,43378,19.75,74714.3,6.39,-27.71,-29.61,0,*75
1508270448.87,43379,19.75,74708.8,6.41,-27.89,-29.73,0,*7F
1508270450.08,43380,19.75,74712.3,6.41,-27.67,-29.45,0,*7C
1508270451.28,43381,19.75,74714.5,6.41,-27.67,-29.57,0,*7E
1508270452.49,43382,19.75,74712.0,6.41,-27.67,-29.57,0,*7D
1508270453.71,43383,19.75,74714.8,6.41,-27.39,-29.23,0,*74
1508270454.93,43384,19.75,74714.8,6.41,-27.51,-29.29,0,*77
1508270456.17,43385,19.75,74716.8,6.43,-27.55,-29.39,0,*71
1508270457.42,43386,19.75,74714.5,6.43,-27.67,-29.39,0,*73
1508270458.65,43387,19.75,74714.0,6.43,-27.55,-29.45,0,*78
1508270459.87,43388,19.75,74718.5,6.41,-27.51,-29.39,0,*7A
1508270461.09,43389,19.75,74718.5,6.41,-27.51,-29.29,0,*7A
1508270462.31,43390,19.75,74714.3,6.43,-27.51,-29.45,0,*7A
1508270463.56,43391,19.75,74714.3,6.43,-27.55,-29.39,0,*74
1508270464.79,43392,19.75,74714.3,6.43,-27.67,-29.57,0,*7E
1508270466.04,43393,19.75,74714.0,6.43,-27.55,-29.39,0,*76
1508270467.28,43394,19.75,74710.8,6.43,-27.55,-29.39,0,*71
1508270468.53,43395,19.75,74712.8,6.43,-27.51,-29.29,0,*75
1508270469.77,43396,19.75,74718.3,6.43,-27.51,-29.29,0,*76
1508270471.0,43397,19.75,74712.3,6.43,-27.67,-29.45,0,*78
1508270472.25,43398,19.75,74716.0,6.45,-27.45,-29.35,0,*76
1508270473.51,43399,19.75,74714.3,6.45,-27.61,-29.51,0,*73
1508270474.74,43400,19.75,74712.0,6.43,-27.67,-29.57,0,*72
1508270475.96,43401,19.75,74714.5,6.43,-27.67,-29.61,0,*76
1508270477.19,43402,19.75,74714.0,6.43,-27.71,-29.61,0,*72
1508270478.41,43403,19.75,74714.0,6.43,-27.71,-29.61,0,*73
1508270479.63,43404,19.75,74712.8,6.43,-27.51,-29.23,0,*70
1508270480.88,43405,19.75,74714.0,6.43,-27.51,-29.39,0,*7A
1508270482.1,43406,19.75,74716.3,6.45,-27.51,-29.35,0,*73
1508270483.3,43407,19.75,74716.0,6.45,-27.67,-29.57,0,*73
1508270484.56,43408,19.75,74714.3,6.45,-27.61,-29.51,0,*7C
1508270485.81,43409,19.75,74712.8,6.45,-27.61,-29.39,0,*73
1508270487.07,43410,19.75,74710.8,6.45,-27.61,-29.51,0,*75
1508270488.29,43411,19.75,74714.5,6.45,-27.51,-29.35,0,*75
1508270489.52,43412,19.75,74714.8,6.45,-27.83,-29.67,0,*7E
1508270490.72,43413,19.75,74714.3,6.45,-27.77,-29.57,0,*77
1508270491.92,43414,19.75,74712.5,6.45,-27.67,-29.57,0,*71
1508270493.12,43415,19.75,74712.5,6.45,-27.77,-29.67,0,*72
1508270494.32,43416,19.75,74708.0,6.45,-27.67,-29.57,0,*73
1508270495.55,43417,19.75,74712.0,6.47,-27.67,-29.57,0,*70
1508270496.75,43418,19.75,74714.0,6.45,-27.77,-29.57,0,*7C
1508270497.95,43419,19.75,74712.5,6.45,-27.77,-29.67,0,*7E
1508270499.15,43420,19.75,74712.5,6.45,-27.77,-29.67,0,*74
1508270500.35,43421,19.75,74712.3,6.45,-27.77,-29.57,0,*76
1508270501.58,43422,19.75,74710.8,6.45,-27.77,-29.51,0,*73
1508270502.82,43423,19.75,74712.0,6.45,-27.45,-29.39,0,*7D
1508270504.08,43424,19.75,74710.5,6.45,-27.61,-29.51,0,*72
1508270505.28,43425,19.75,74712.5,6.45,-27.67,-29.67,0,*70
1508270506.48,43426,19.75,74714.5,6.45,-27.67,-29.57,0,*70
1508270507.74,43427,19.75,74712.3,6.45,-27.61,-29.51,0,*71
1508270508.99,43428,19.75,74712.8,6.45,-27.45,-29.35,0,*7A
1508270510.22,43429,19.75,74716.3,6.45,-27.51,-29.35,0,*7E
1508270511.44,43430,19.75,74712.8,6.45,-27.51,-29.35,0,*76
1508270512.7,43431,19.75,74712.3,6.47,-27.51,-29.35,0,*75
1508270513.92,43432,19.75,74712.0,6.47,-27.67,-29.57,0,*77
1508270515.18,43433,19.75,74710.3,6.45,-27.61,-29.51,0,*74
1508270516.4,43434,19.75,74714.5,6.45,-27.51,-29.39,0,*7E
1508270517.66,43435,19.75,74712.5,6.45,-27.61,-29.35,0,*70
1508270518.91,43436,19.75,74712.3,6.47,-27.67,-29.39,0,*7B
1508270520.15,43437,19.75,74712.5,6.47,-27.51,-29.39,0,*7F
1508270521.44,43438,19.75,74710.3,6.47,-27.61,-29.35,0,*7F
1508270522.66,43439,19.75,74714.3,6.45,-27.77,-29.51,0,*79
1508270523.94,43440,19.75,74714.3,6.47,-27.45,-29.35,0,*76
1508270525.22,43441,19.75,74714.0,6.47,-27.61,-29.39,0,*7D
1508270526.48,43442,19.75,74714.8,6.45,-27.61,-29.51,0,*72
1508270527.74,43443,19.75,74712.5,6.47,-27.67,-29.51,0,*77
1508270529.01,43444,19.75,74714.8,6.47,-27.45,-29.35,0,*72
1508270530.27,43445,19.75,74712.5,6.45,-27.61,-29.39,0,*7B
1508270531.55,43446,19.75,74714.8,6.47,-27.61,-29.51,0,*74
1508270532.8,43447,19.75,74714.8,6.47,-27.67,-29.39,0,*7D
1508270534.08,43448,19.75,74712.3,6.47,-27.61,-29.39,0,*74
1508270535.34,43449,19.75,74712.3,6.49,-27.61,-29.51,0,*75
1508270536.6,43450,19.75,74712.0,6.47,-27.61,-29.57,0,*75
1508270537.82,43451,19.75,74712.3,6.47,-27.77,-29.57,0,*73
1508270539.1,43452,19.75,74716.8,6.47,-27.61,-29.39,0,*7F
1508270540.3,43453,19.75,74714.8,6.49,-27.77,-29.61,0,*7A
1508270541.53,43454,19.75,74712.5,6.47,-27.77,-29.67,0,*75
1508270542.82,43455,19.75,74712.0,6.47,-27.61,-29.51,0,*76
1508270544.06,43456,19.75,74714.3,6.47,-27.51,-29.39,0,*78
1508270545.31,43457,19.75,74712.0,6.49,-27.45,-29.29,0,*73
1508270546.51,43458,19.75,74714.3,6.49,-27.55,-29.45,0,*77
1508270547.73,43459,19.75,74712.8,6.49,-27.55,-29.35,0,*71
1508270548.96,43460,19.75,74714.5,6.49,-27.71,-29.51,0,*7F
1508270550.19,43461,19.75,74712.8,6.49,-27.55,-29.51,0,*78
1508270551.42,43462,19.75,74712.3,6.49,-27.55,-29.51,0,*7B
1508270552.68,43463,19.75,74712.3,6.49,-27.61,-29.51,0,*7D
1508270553.91,43464,19.75,74712.5,6.49,-27.77,-29.51,0,*7D
1508270555.14,43465,19.75,74712.0,6.51,-27.51,-29.45,0,*74
1508270556.37,43466,19.75,74712.8,6.49,-27.61,-29.45,0,*7D
1508270557.63,43467,19.75,74712.8,6.49,-27.45,-29.35,0,*7D
1508270558.86,43468,19.75,74712.8,6.49,-27.71,-29.51,0,*77
1508270560.06,43469,19.69,74710.0,6.49,-27.71,-29.45,0,*73
1508270561.26,43470,19.75,74714.5,6.49,-27.55,-29.45,0,*7D
1508270562.48,43471,19.75,74714.3,6.51,-27.71,-29.61,0,*75
1508270563.68,43472,19.75,74714.3,6.49,-27.77,-29.61,0,*79
1508270564.88,43473,19.75,74712.5,6.49,-27.71,-29.61,0,*7E
1508270566.13,43474,19.69,74710.0,6.47,-27.67,-29.39,0,*7D
1508270567.37,43475,19.75,74712.0,6.49,-27.61,-29.45,0,*7F
1508270568.59,43476,19.75,74712.8,6.51,-27.71,-29.61,0,*72
1508270569.79,43477,19.75,74712.0,6.49,-27.77,-29.67,0,*7A
1508270571.02,43478,19.75,74712.8,6.49,-27.83,-29.67,0,*7E
1508270572.22,43479,19.75,74714.5,6.49,-27.71,-29.61,0,*74
1508270573.42,43480,19.75,74714.0,6.49,-27.55,-29.45,0,*72
1508270574.65,43481,19.75,74712.8,6.49,-27.71,-29.51,0,*70
1508270575.85,43482,19.75,74712.3,6.49,-27.71,-29.45,0,*76
1508270577.05,43483,19.75,74714.3,6.49,-27.71,-29.45,0,*77
1508270578.29,43484,19.75,74712.3,6.49,-27.39,-29.29,0,*76
1508270579.55,43485,19.75,74714.0,6.49,-27.45,-29.51,0,*73
1508270580.81,43486,19.75,74712.8,6.49,-27.61,-29.51,0,*76
1508270582.04,43487,19.75,74716.3,6.49,-27.71,-29.51,0,*76
1508270583.27,43488,19.75,74712.3,6.51,-27.71,-29.45,0,*75
1508270584.47,43489,19.75,74714.5,6.49,-27.67,-29.57,0,*79
1508270585.67,43490,19.75,74714.5,6.49,-27.55,-29.45,0,*73
1508270586.9,43491,19.75,74714.0,6.49,-27.45,-29.45,0,*73
1508270588.13,43492,19.75,74716.3,6.49,-27.55,-29.35,0,*76
1508270589.36,43493,19.75,74712.8,6.49,-27.61,-29.45,0,*77
1508270590.61,43494,19.75,74712.8,6.51,-27.67,-29.39,0,*74
1508270591.81,43495,19.75,74714.5,6.49,-27.77,-29.61,0,*70
1508270593.04,43496,19.75,74714.0,6.51,-27.71,-29.45,0,*7A
1508270594.24,43497,19.75,74712.3,6.49,-27.71,-29.61,0,*74
1508270595.5,43498,19.75,74714.0,6.49,-27.61,-29.51,0,*79
1508270596.73,43499,19.75,74712.0,6.49,-27.71,-29.51,0,*79
1508270597.96,43500,19.75,74718.0,6.49,-27.71,-29.51,0,*78
1508270599.21,43501,19.75,74714.0,6.51,-27.67,-29.39,0,*79
1508270600.43,43502,19.75,74712.0,6.51,-27.51,-29.23,0,*74
1508270601.69,43503,19.75,74714.3,6.49,-27.45,-29.35,0,*7E
1508270602.93,43504,19.75,74714.3,6.51,-27.39,-29.23,0,*7C
1508270604.2,43505,19.75,74714.8,6.51,-27.35,-29.29,0,*7B
1508270605.43,43506,19.75,74712.8,6.49,-27.55,-29.35,0,*7A
1508270606.68,43507,19.75,74714.3,6.49,-27.39,-29.35,0,*71
1508270607.88,43508,19.69,74714.0,6.49,-27.77,-29.67,0,*73
1508270609.12,43509,19.75,74714.0,6.49,-27.61,-29.61,0,*73
1508270610.34,43510,19.75,74712.3,6.51,-27.51,-29.45,0,*77
1508270611.57,43511,19.75,74712.8,6.51,-27.71,-29.57,0,*77
1508270612.8,43512,19.69,74710.0,6.51,-27.55,-29.45,0,*71
1508270614.03,43513,19.75,74714.8,6.51,-27.71,-29.45,0,*76
1508270615.26,43514,19.69,74712.3,6.51,-27.55,-29.45,0,*77
1508270616.49,43515,19.75,74714.0,6.51,-27.55,-29.45,0,*76
1508270617.69,43516,19.69,74714.5,6.49,-27.55,-29.45,0,*7C
1508270618.96,43517,19.69,74714.5,6.51,-27.39,-29.29,0,*74
1508270620.2,43518,19.69,74712.0,6.51,-27.51,-29.39,0,*74
1508270621.45,43519,19.69,74712.8,6.51,-27.55,-29.39,0,*71
1508270622.7,43520,19.69,74712.3,6.53,-27.51,-29.39,0,*7D
1508270623.9,43521,19.75,74712.5,6.49,-27.77,-29.67,0,*78
1508270625.15,43522,19.69,74714.0,6.53,-27.55,-29.39,0,*7B
1508270626.35,43523,19.69,74714.5,6.49,-27.71,-29.67,0,*7C
1508270627.6,43524,19.75,74714.8,6.51,-27.77,-29.73,0,*71
1508270628.83,43525,19.69,74714.0,6.51,-27.67,-29.57,0,*77
1508270630.08,43526,19.75,74716.0,6.51,-27.51,-29.29,0,*78
1508270631.28,43527,19.75,74714.3,6.49,-27.77,-29.67,0,*7E
1508270632.54,43528,19.69,74714.8,6.49,-27.61,-29.51,0,*73
1508270633.77,43529,19.69,74710.3,6.51,-27.71,-29.45,0,*7F
1508270635.0,43530,19.75,74714.5,6.51,-27.67,-29.45,0,*70
1508270636.23,43531,19.69,74710.5,6.53,-27.67,-29.45,0,*73
1508270637.46,43532,19.69,74714.5,6.51,-27.55,-29.45,0,*73
1508270638.7,43533,19.69,74708.0,6.49,-27.39,-29.29,0,*7B
1508270639.95,43534,19.75,74714.5,6.51,-27.39,-29.23,0,*7F
1508270641.22,43535,19.69,74710.0,6.51,-27.39,-29.39,0,*75
1508270642.47,43536,19.69,74714.3,6.51,-27.35,-29.23,0,*71
1508270643.69,43537,19.75,74712.0,6.57,-27.29,-29.07,0,*7D
1508270644.94,43538,19.69,74712.3,6.57,-27.51,-29.39,0,*70
1508270646.18,43539,19.69,74712.5,6.53,-27.51,-29.29,0,*74
1508270647.43,43540,19.75,74714.8,6.53,-27.51,-29.39,0,*7B
1508270648.65,43541,19.69,74714.0,6.53,-27.55,-29.45,0,*75
1508270649.89,43542,19.69,74712.3,6.53,-27.35,-29.23,0,*70
1508270651.14,43543,19.69,74710.5,6.57,-27.35,-29.23,0,*75
1508270652.38,43544,19.75,74714.8,6.53,-27.51,-29.39,0,*7F
1508270653.67,43545,19.69,74712.8,6.57,-27.45,-29.35,0,*73
1508270654.94,43546,19.69,74708.3,6.53,-27.39,-29.39,0,*73
1508270656.16,43547,19.69,74710.8,6.53,-27.55,-29.45,0,*73
1508270657.39,43548,19.69,74710.0,6.53,-27.67,-29.61,0,*7B
1508270658.65,43549,19.69,74708.3,6.53,-27.39,-29.29,0,*7D
1508270659.9,43550,19.69,74714.3,6.53,-27.39,-29.23,0,*7F
1508270661.16,43551,19.69,74714.0,6.53,-27.39,-29.29,0,*74
1508270662.42,43552,19.75,74712.5,6.57,-27.67,-29.39,0,*79
1508270663.7,43553,19.75,74712.5,6.57,-27.61,-29.51,0,*70
1508270664.93,43554,19.69,74712.0,6.53,-27.55,-29.57,0,*72
1508270666.18,43555,19.75,74714.8,6.53,-27.55,-29.39,0,*7B
1508270667.43,43556,19.75,74714.5,6.57,-27.67,-29.51,0,*73
1508270668.71,43557,19.69,74714.8,6.57,-27.45,-29.39,0,*7C
1508270669.94,43558,19.69,74710.8,6.53,-27.51,-29.45,0,*79
1508270671.16,43559,19.69,74710.8,6.57,-27.29,-29.23,0,*73
1508270672.41,43560,19.69,74714.8,6.57,-27.51,-29.39,0,*7D
1508270673.66,43561,19.69,74712.5,6.57,-27.45,-29.23,0,*72
1508270674.94,43562,19.69,74710.0,6.57,-27.45,-29.39,0,*7A
1508270676.18,43563,19.69,74714.8,6.59,-27.23,-29.29,0,*74
1508270677.43,43564,19.69,74708.8,6.57,-27.35,-29.07,0,*76
1508270678.68,43565,19.69,74712.0,6.57,-27.51,-29.39,0,*78
1508270679.96,43566,19.69,74710.8,6.57,-27.45,-29.35,0,*72
1508270681.19,43567,19.69,74712.0,6.59,-27.61,-29.61,0,*7A
1508270682.46,43568,19.69,74714.0,6.57,-27.83,-29.73,0,*74
1508270683.71,43569,19.69,74712.8,6.53,-27.55,-29.39,0,*74
1508270685.0,43570,19.69,74714.3,6.57,-27.61,-29.51,0,*71
1508270686.29,43571,19.69,74714.8,6.57,-27.61,-29.51,0,*70
1508270687.54,43572,19.75,74714.5,6.57,-27.67,-29.39,0,*7B
1508270688.78,43573,19.69,74712.0,6.57,-27.35,-29.23,0,*76
1508270690.04,43574,19.75,74712.3,6.57,-27.51,-29.35,0,*74
1508270691.29,43575,19.69,74714.3,6.57,-27.29,-29.17,0,*7A
1508270692.54,43576,19.69,74712.5,6.59,-27.45,-29.17,0,*7D
1508270693.81,43577,19.69,74714.0,6.59,-27.61,-29.35,0,*7A
1508270695.04,43578,19.69,74710.0,6.59,-27.55,-29.17,0,*72
1508270696.27,43579,19.69,74712.5,6.59,-27.55,-29.51,0,*71
1508270697.52,43580,19.69,74710.8,6.59,-27.45,-29.29,0,*79
1508270698.72,43581,19.69,74710.8,6.59,-27.55,-29.45,0,*73
1508270699.96,43582,19.69,74712.8,6.59,-27.61,-29.45,0,*77
1508270701.19,43583,19.69,74712.3,6.59,-27.29,-29.29,0,*70
1508270702.39,43584,19.69,74712.0,6.59,-27.55,-29.45,0,*76
1508270703.66,43585,19.69,74714.0,6.59,-27.61,-29.51,0,*75
1508270704.94,43586,19.69,74710.8,6.61,-27.61,-29.51,0,*7D
1508270706.18,43587,19.69,74710.8,6.59,-27.55,-29.51,0,*70
1508270707.43,43588,19.69,74712.5,6.57,-27.45,-29.23,0,*75
1508270708.67,43589,19.69,74712.3,6.57,-27.51,-29.39,0,*7A
1508270709.92,43590,19.69,74712.3,6.59,-27.39,-29.29,0,*73
1508270711.19,43591,19.69,74712.0,6.59,-27.61,-29.51,0,*70
1508270712.44,43592,19.69,74714.0,6.61,-27.55,-29.35,0,*7D
1508270713.73,43593,19.69,74710.0,6.61,-27.61,-29.51,0,*79
1508270714.98,43594,19.69,74708.5,6.61,-27.45,-29.45,0,*7D
1508270716.23,43595,19.69,74714.0,6.59,-27.23,-29.17,0,*70
1508270717.46,43596,19.69,74710.8,6.59,-27.55,-29.35,0,*72
1508270718.71,43597,19.69,74712.5,6.59,-27.39,-29.29,0,*74
1508270719.97,43598,19.69,74710.5,6.59,-27.45,-29.35,0,*7D
1508270721.24,43599,19.69,74714.8,6.59,-27.61,-29.51,0,*78
1508270722.44,43600,19.69,74714.3,6.59,-27.55,-29.45,0,*79
1508270723.71,43601,19.69,74710.8,6.61,-27.39,-29.29,0,*73
1508270724.96,43602,19.69,74710.8,6.59,-27.45,-29.29,0,*70
1508270726.22,43603,19.69,74714.0,6.59,-27.39,-29.35,0,*77
1508270727.49,43604,19.69,74708.0,6.61,-27.39,-29.35,0,*7B
1508270728.76,43605,19.69,74712.3,6.61,-27.39,-29.29,0,*77
1508270730.02,43606,19.69,74710.3,6.61,-27.45,-29.45,0,*75
1508270731.27,43607,19.69,74710.8,6.61,-27.55,-29.51,0,*70
1508270732.53,43608,19.69,74712.8,6.61,-27.55,-29.35,0,*7D
1508270733.73,43609,19.69,74714.5,6.59,-27.55,-29.45,0,*70
1508270734.98,43610,19.69,74708.5,6.61,-27.45,-29.45,0,*72
1508270736.24,43611,19.69,74710.8,6.61,-27.61,-29.45,0,*75
1508270737.5,43612,19.69,74712.5,6.61,-27.61,-29.45,0,*76
1508270738.74,43613,19.69,74714.0,6.59,-27.61,-29.45,0,*7C
1508270740.0,43614,19.69,74708.8,6.61,-27.67,-29.51,0,*73
1508270741.28,43615,19.69,74712.0,6.61,-27.45,-29.35,0,*70
1508270742.51,43616,19.69,74712.3,6.61,-27.55,-29.45,0,*75
1508270743.79,43617,19.69,74708.5,6.61,-27.45,-29.35,0,*72
1508270745.05,43618,19.69,74710.3,6.59,-27.45,-29.35,0,*76
1508270746.28,43619,19.69,74710.5,6.61,-27.55,-29.45,0,*7A
1508270747.53,43620,19.69,74710.8,6.61,-27.45,-29.45,0,*71
1508270748.76,43621,19.69,74710.5,6.61,-27.55,-29.45,0,*71
1508270750.03,43622,19.69,74714.3,6.61,-27.45,-29.29,0,*79
1508270751.28,43623,19.69,74712.5,6.59,-27.39,-29.35,0,*75
1508270752.51,43624,19.69,74714.5,6.61,-27.55,-29.45,0,*74
1508270753.77,43625,19.69,74714.3,6.61,-27.61,-29.45,0,*72
1508270755.0,43626,19.69,74712.5,6.61,-27.67,-29.61,0,*71
1508270756.23,43627,19.69,74710.8,6.63,-27.61,-29.45,0,*72
1508270757.46,43628,19.69,74712.0,6.61,-27.55,-29.45,0,*78
1508270758.72,43629,19.69,74708.0,6.61,-27.55,-29.35,0,*7E
1508270759.98,43630,19.69,74714.8,6.61,-27.61,-29.45,0,*76
1508270761.24,43631,19.69,74710.5,6.61,-27.61,-29.45,0,*77
1508270762.46,43632,19.69,74712.5,6.61,-27.55,-29.45,0,*73
1508270763.69,43633,19.69,74712.5,6.61,-27.67,-29.61,0,*75
1508270764.9,43634,19.69,74708.8,6.59,-27.67,-29.61,0,*79
1508270766.19,43635,19.69,74712.5,6.61,-27.61,-29.35,0,*74
1508270767.39,43636,19.69,74710.5,6.63,-27.55,-29.45,0,*75
1508270768.66,43637,19.69,74714.3,6.61,-27.39,-29.29,0,*76
1508270769.94,43638,19.69,74710.8,6.61,-27.45,-29.51,0,*7D
1508270771.17,43639,19.69,74712.5,6.61,-27.77,-29.67,0,*78
1508270772.39,43640,19.69,74712.8,6.61,-27.55,-29.45,0,*76
1508270773.6,43641,19.69,74708.8,6.63,-27.55,-29.45,0,*75
1508270774.8,43642,19.69,74712.8,6.59,-27.77,-29.79,0,*70
1508270776.05,43643,19.69,74710.5,6.61,-27.55,-29.51,0,*70
1508270777.29,43644,19.69,74710.3,6.63,-27.61,-29.57,0,*74
1508270778.52,43645,19.69,74710.3,6.63,-27.61,-29.45,0,*76
1508270779.8,43646,19.69,74714.3,6.61,-27.45,-29.51,0,*74
1508270781.07,43647,19.69,74708.8,6.59,-27.61,-29.51,0,*78
1508270782.33,43648,19.69,74710.3,6.61,-27.67,-29.51,0,*7A
1508270783.61,43649,19.69,74710.8,6.61,-27.39,-29.35,0,*72
1508270784.81,43650,19.69,74710.3,6.63,-27.55,-29.61,0,*73
1508270786.02,43651,19.69,74710.5,6.63,-27.51,-29.29,0,*7A
1508270787.29,43652,19.69,74712.0,6.61,-27.39,-29.29,0,*75
1508270788.56,43653,19.69,74708.8,6.61,-27.45,-29.29,0,*7F
1508270789.82,43654,19.69,74710.8,6.61,-27.61,-29.45,0,*74
1508270791.05,43655,19.69,74708.8,6.61,-27.55,-29.45,0,*72
1508270792.28,43656,19.69,74708.5,6.61,-27.55,-29.45,0,*71
1508270793.49,43657,19.69,74710.5,6.59,-27.77,-29.67,0,*7B
1508270794.74,43658,19.69,74708.8,6.61,-27.83,-29.67,0,*74
1508270795.94,43659,19.69,74708.5,6.63,-27.55,-29.57,0,*7F
1508270797.16,43660,19.69,74712.8,6.61,-27.93,-29.79,0,*71
1508270798.39,43661,19.69,74710.3,6.61,-27.77,-29.61,0,*73
1508270799.64,43662,19.69,74714.3,6.61,-27.93,-29.89,0,*7C
1508270800.88,43663,19.69,74710.8,6.59,-28.09,-29.83,0,*70
1508270802.09,43664,19.69,74710.5,6.59,-27.77,-29.67,0,*7B
1508270803.31,43665,19.69,74714.3,6.59,-27.83,-29.79,0,*7E
1508270804.54,43666,19.69,74714.8,6.61,-27.93,-29.83,0,*72
1508270805.74,43667,19.69,74714.3,6.59,-27.77,-29.67,0,*78
1508270806.97,43668,19.69,74712.5,6.61,-27.67,-29.61,0,*7B
1508270808.23,43669,19.69,74712.0,6.59,-27.45,-29.35,0,*70
1508270809.44,43670,19.69,74710.3,6.59,-27.67,-29.61,0,*79
1508270810.67,43671,19.69,74710.3,6.61,-27.93,-29.83,0,*74
1508270811.89,43672,19.69,74710.8,6.59,-27.83,-29.79,0,*78
1508270813.15,43673,19.69,74710.5,6.61,-27.61,-29.45,0,*71
1508270814.36,43674,19.69,74708.0,6.59,-27.67,-29.61,0,*7D
1508270815.57,43675,19.69,74710.0,6.59,-27.67,-29.45,0,*7A
1508270816.85,43676,19.69,74712.8,6.61,-27.61,-29.51,0,*71
1508270818.09,43677,19.69,74712.3,6.59,-27.67,-29.51,0,*7D
1508270819.33,43678,19.69,74710.3,6.59,-27.61,-29.45,0,*71
1508270820.57,43679,19.69,74710.5,6.59,-27.61,-29.45,0,*70
1508270821.81,43680,19.69,74710.8,6.59,-27.39,-29.29,0,*71
1508270823.07,43681,19.69,74710.5,6.61,-27.45,-29.45,0,*7A
1508270824.27,43682,19.69,74708.8,6.59,-27.55,-29.45,0,*73
1508270825.5,43683,19.69,74714.0,6.61,-27.55,-29.45,0,*79
1508270826.76,43684,19.69,74710.8,6.59,-27.61,-29.51,0,*77
1508270827.99,43685,19.69,74708.0,6.61,-27.67,-29.61,0,*78
1508270829.22,43686,19.69,74710.8,6.59,-27.83,-29.67,0,*7C
1508270830.42,43687,19.69,74716.8,6.59,-27.77,-29.61,0,*70
1508270831.67,43688,19.69,74708.8,6.59,-27.39,-29.29,0,*79
1508270832.9,43689,19.69,74710.3,6.59,-27.55,-29.51,0,*7D
1508270834.14,43690,19.69,74710.5,6.59,-27.55,-29.35,0,*77
1508270835.41,43691,19.69,74710.0,6.61,-27.45,-29.29,0,*71
1508270836.67,43692,19.69,74712.5,6.61,-27.39,-29.29,0,*79
1508270837.91,43693,19.69,74714.3,6.59,-27.55,-29.35,0,*74
1508270839.18,43694,19.69,74712.0,6.61,-27.45,-29.29,0,*74
1508270840.38,43695,19.69,74714.3,6.59,-27.77,-29.67,0,*75
1508270841.59,43696,19.69,74712.8,6.59,-27.77,-29.61,0,*70
1508270842.85,43697,19.69,74714.3,6.61,-27.67,-29.51,0,*78
1508270844.11,43698,19.69,74712.0,6.61,-27.61,-29.45,0,*74
1508270845.34,43699,19.69,74708.5,6.59,-27.45,-29.45,0,*78
1508270846.54,43700,19.69,74714.5,6.63,-27.55,-29.57,0,*72
1508270847.83,43701,19.69,74712.3,6.61,-27.61,-29.51,0,*70
1508270849.06,43702,19.69,74708.5,6.59,-27.55,-29.51,0,*7F
1508270850.31,43703,19.69,74712.0,6.61,-27.29,-29.29,0,*71
1508270851.57,43704,19.69,74712.0,6.61,-27.29,-29.35,0,*7B
1508270852.78,43705,19.69,74712.5,6.59,-27.77,-29.67,0,*7D
1508270853.98,43706,19.69,74710.5,6.63,-27.77,-29.61,0,*71
1508270855.24,43707,19.69,74708.3,6.61,-27.61,-29.45,0,*73
1508270856.5,43708,19.69,74710.5,6.59,-27.61,-29.51,0,*72
1508270857.71,43709,19.69,74708.8,6.59,-27.67,-29.61,0,*76
1508270858.94,43710,19.69,74712.0,6.61,-27.67,-29.61,0,*75
1508270860.17,43711,19.69,74710.3,6.61,-27.67,-29.61,0,*74
1508270861.37,43712,19.69,74712.8,6.59,-27.55,-29.45,0,*7B
1508270862.57,43713,19.69,74712.3,6.59,-27.55,-29.61,0,*7C
1508270863.81,43714,19.69,74712.3,6.59,-27.61,-29.61,0,*7C
1508270865.01,43715,19.69,74710.5,6.59,-27.55,-29.45,0,*7C
1508270866.3,43716,19.69,74708.3,6.61,-27.61,-29.51,0,*76
1508270867.54,43717,19.69,74704.8,6.59,-27.61,-29.45,0,*79
1508270868.79,43718,19.69,74708.3,6.59,-27.39,-29.29,0,*71
1508270870.03,43719,19.69,74710.8,6.59,-27.23,-29.13,0,*72
1508270871.27,43720,19.69,74710.8,6.59,-27.67,-29.51,0,*7E
1508270872.53,43721,19.69,74712.3,6.59,-27.61,-29.35,0,*7B
1508270873.82,43722,19.69,74714.0,6.61,-27.61,-29.51,0,*71
1508270875.05,43723,19.69,74714.5,6.59,-27.55,-29.35,0,*7E
1508270876.28,43724,19.69,74710.5,6.59,-27.45,-29.45,0,*7F
1508270877.53,43725,19.69,74712.5,6.59,-27.39,-29.29,0,*7F
1508270878.8,43726,19.69,74710.0,6.61,-27.39,-29.29,0,*77
1508270880.08,43727,19.69,74710.5,6.61,-27.45,-29.35,0,*70
1508270881.35,43728,19.69,74714.8,6.61,-27.45,-29.29,0,*72
1508270882.58,43729,19.69,74708.3,6.61,-27.55,-29.45,0,*78
1508270883.87,43730,19.69,74714.5,6.61,-27.61,-29.51,0,*72
1508270885.07,43731,19.69,74712.3,6.63,-27.55,-29.45,0,*73
1508270886.27,43732,19.69,74708.5,6.63,-27.55,-29.57,0,*73
1508270887.5,43733,19.69,74714.0,6.61,-27.55,-29.45,0,*73
1508270888.76,43734,19.69,74712.3,6.59,-27.61,-29.51,0,*7D
1508270890.02,43735,19.69,74708.5,6.61,-27.55,-29.35,0,*72
1508270891.3,43736,19.69,74710.0,6.61,-27.61,-29.51,0,*74
1508270892.59,43737,19.69,74710.0,6.61,-27.45,-29.35,0,*71
1508270893.85,43738,19.69,74712.0,6.61,-27.61,-29.45,0,*7F
1508270895.07,43739,19.69,74710.3,6.61,-27.55,-29.45,0,*79
1508270896.36,43740,19.69,74714.0,6.61,-27.61,-29.35,0,*77
1508270897.58,43741,19.69,74710.3,6.63,-27.51,-29.39,0,*7B
1508270898.84,43742,19.69,74708.8,6.61,-27.61,-29.61,0,*74
1508270900.08,43743,19.69,74708.5,6.63,-27.61,-29.57,0,*72
1508270901.3,43744,19.69,74710.3,6.61,-27.55,-29.45,0,*73
1508270902.56,43745,19.69,74708.8,6.61,-27.61,-29.45,0,*75
1508270903.82,43746,19.69,74712.3,6.61,-27.45,-29.45,0,*70